Location: Civry
(47.2902°N, 4.6156°E)
Time: 00:01:56
(UTC+00:00)

Cosmos 1766 Rocket - Pass Details

Date: 09 April 2020
Orbit: 604 x 634 km, 82.5° (Epoch: 04 June)

Event Time Altitude Azimuth Distance (km) Brightness Sun altitude
Rises 20:46:39 0° 355° (N) 2,940 7.7 -22.4°
Reaches altitude 10° 20:48:59 10° 1° (N) 2,025 6.7 -22.7°
Enters shadow 20:52:56 47° 58° (ENE) 841 4.0 -23.1°
